Location: Boley
(53.1150°N, 8.2269°W)
Time: 23:45:18
(UTC+00:00)

Meteor 2-2 Rocket - Pass Details

Date: 15 May 2026
Orbit: 852 x 926 km, 81.3° (Epoch: 11 June)

Event Time Altitude Azimuth Distance (km) Brightness Sun altitude
Exits shadow 23:04:59 21° 183° (S) 1,854 5.4 -15.6°
Maximum altitude 23:08:55 78° 101° (E) 899 4.2 -15.8°
Drops below altitude 10° 23:14:44 10° 15° (NNE) 2,562 7.6 -16.1°
Sets 23:17:13 0° 15° (NNE) 3,517 8.4 -16.2°
